Hayward, WI

8:28 PM CDT on April 28, 2017 (GMT -0500)
Sawyer County

Weather History for KHYR - May, 2014

Change the Weather History Date:

Monday, May 26, 2014

  Actual Average Record
Temperature  
Mean Temperature 75 °F -  
Max Temperature 86 °F 70 °F 86 °F (2014)
Min Temperature 64 °F 38 °F 28 °F (1999)
Cooling Degree Days 10    
Growing Degree Days 25 (Base 50)    
Moisture  
Dew Point 62 °F    
Average Humidity 75    
Maximum Humidity 100    
Minimum Humidity 36    
Precipitation  
Precipitation 0.21 in - - ()
Sea Level Pressure  
Sea Level Pressure 29.89 in    
Wind  
Wind Speed 4 mph (SSW)    
Max Wind Speed 10 mph    
Max Gust Speed 18 mph    
Visibility 9 miles    
Events Rain , Thunderstorm    
Averages and records for this station are not official NWS values.
T = Trace of Precipitation, MM = Missing Value Source: NWS Daily Summary

Daily Weather History Graph

Daily Weather History Graph

Search for Another Location

Airport or City:

Trip Planner

Search our weather history database for the weather conditions in past years. The results will help you decide how hot, cold, wet, or windy it might be!

Date:

Astronomy

May. 26, 2014 Rise Set
Actual Time 5:22 AM CDT 8:43 PM CDT
Civil Twilight 4:45 AM CDT 9:20 PM CDT
Nautical Twilight 3:57 AM CDT 10:08 PM CDT
Astronomical Twilight 2:57 AM CDT 11:10 PM CDT
Moon 4:13 AM CDT (5/26) 6:39 PM CDT (5/26)
Length of Visible Light 16h 34m
Length of Day
15h 21m
Waning Crescent, 5% of the Moon is Illuminated
May 26
Waning Crescent
May 28
New
Jun 5
First Quarter
Jun 12
Full
Jun 19
Last Quarter

Hourly Weather History & Observations

Time (CDT) Temp. Heat Index Dew Point Humidity Pressure Visibility Wind Dir Wind Speed Gust Speed Precip Events Conditions
12:53 AM 69.1 °F - 55.9 °F 63% 29.91 in 10.0 mi South 3.5 mph - N/A   Mostly Cloudy
1:53 AM 64.0 °F - 57.0 °F 78% 29.92 in 10.0 mi South 4.6 mph - N/A   Overcast
2:53 AM 66.9 °F - 57.9 °F 73% 29.91 in 10.0 mi South 3.5 mph - N/A   Overcast
3:53 AM 66.0 °F - 60.1 °F 81% 29.90 in 10.0 mi South 3.5 mph - N/A   Overcast
4:53 AM 64.0 °F - 60.1 °F 87% 29.91 in 10.0 mi South 5.8 mph - N/A   Mostly Cloudy
5:53 AM 64.9 °F - 61.0 °F 87% 29.91 in 10.0 mi Calm Calm - 0.00 in   Mostly Cloudy
6:53 AM 66.0 °F - 62.1 °F 87% 29.91 in 10.0 mi SSW 3.5 mph - N/A   Clear
7:53 AM 70.0 °F - 63.0 °F 78% 29.91 in 10.0 mi SSW 8.1 mph - N/A   Clear
8:53 AM 73.0 °F - 63.0 °F 71% 29.91 in 10.0 mi WSW 8.1 mph - N/A   Clear
9:53 AM 75.9 °F - 63.0 °F 64% 29.91 in 10.0 mi SW 8.1 mph - N/A   Clear
10:53 AM 78.1 °F - 63.0 °F 60% 29.90 in 10.0 mi South 8.1 mph - N/A   Partly Cloudy
11:53 AM 81.0 °F 81.6 °F 60.1 °F 49% 29.90 in 10.0 mi SW 10.4 mph - N/A   Clear
12:53 PM 81.0 °F 81.0 °F 57.0 °F 44% 29.89 in 9.0 mi Variable 3.5 mph - N/A   Mostly Cloudy
1:53 PM 84.9 °F 83.7 °F 55.9 °F 37% 29.87 in 10.0 mi SW 8.1 mph - N/A   Partly Cloudy
2:53 PM 86.0 °F 84.7 °F 55.9 °F 36% 29.85 in 10.0 mi Variable 6.9 mph 17.3 mph N/A   Partly Cloudy
3:53 PM 82.0 °F 81.7 °F 57.0 °F 42% 29.84 in 10.0 mi NNW 5.8 mph - N/A   Mostly Cloudy
4:53 PM 80.1 °F 80.7 °F 59.0 °F 48% 29.86 in 10.0 mi Calm Calm - N/A Thunderstorm Thunderstorm
5:12 PM 72.0 °F - 64.0 °F 76% 29.89 in 2.5 mi WNW 10.4 mph 18.4 mph 0.05 in Rain Heavy Rain
5:19 PM 69.1 °F - 66.0 °F 90% 29.89 in 1.0 mi Variable 4.6 mph 18.4 mph 0.12 in Rain Heavy Rain
5:31 PM 69.1 °F - 66.0 °F 90% 29.88 in 2.0 mi SSE 5.8 mph - 0.21 in Rain Light Rain
5:39 PM 69.1 °F - 66.9 °F 93% 29.88 in 10.0 mi Calm Calm - 0.21 in Rain Light Rain
5:53 PM 69.1 °F - 68.0 °F 96% 29.87 in 10.0 mi Calm Calm - 0.21 in   Overcast
6:53 PM 70.0 °F - 70.0 °F 100% 29.87 in 9.0 mi Calm Calm - N/A   Mostly Cloudy
7:53 PM 71.1 °F - 69.1 °F 93% 29.89 in 10.0 mi Calm Calm - N/A   Clear
8:53 PM 70.0 °F - 70.0 °F 100% 29.89 in 7.0 mi Calm Calm - N/A   Overcast
10:53 PM 66.0 °F - 66.0 °F 100% 29.90 in 6.0 mi Calm Calm - N/A   Partly Cloudy
11:53 PM 64.9 °F - 64.0 °F 97% 29.90 in 10.0 mi ESE 3.5 mph - N/A   Partly Cloudy